CW0565 Weather Reports


Display with metric or nautical units.
time (UTC)temp
F
wind
direction
speed
MPH
gust
MPH
rain 1hr
in
rain 24hr
in
rain mn
in
humidity
%
barometer
mb
20210802182520 60 184 5.0 9.0 0.00 0.01 0.01 75 1005.8
20210802182009 60 188 7.0 9.0 0.00 0.01 0.01 75 1005.7
20210802181506 60 167 5.0 8.0 0.00 0.01 0.01 74 1005.7
20210802181006 60 195 4.0 8.0 0.00 0.01 0.01 73 1005.7
20210802180505 60 195 3.0 8.0 0.00 0.01 0.01 73 1005.7
20210802180005 60 187 4.0 9.0 0.00 0.01 0.01 74 1005.7
20210802175504 61 186 5.0 10.0 0.00 0.02 0.01 73 1005.7
20210802175014 61 192 6.0 10.0 0.00 0.02 0.01 73 1005.6
20210802174504 61 211 6.0 10.0 0.00 0.02 0.01 72 1005.6
20210802174004 61 195 7.0 10.0 0.00 0.02 0.01 72 1005.6
20210802173504 61 194 6.0 13.0 0.00 0.02 0.01 73 1005.6
20210802173013 61 159 8.0 13.0 0.00 0.02 0.01 72 1005.6
20210802172002 61 183 6.0 10.0 0.00 0.02 0.01 71 1005.6
20210802171516 62 171 8.0 12.0 0.00 0.02 0.01 71 1005.6
20210802171003 62 195 6.0 11.0 0.00 0.02 0.01 71 1005.6
20210802170502 62 178 6.0 12.0 0.00 0.02 0.01 71 1005.7
20210802170008 62 194 6.0 13.0 0.00 0.02 0.01 72 1005.6
20210802165502 62 208 9.0 13.0 0.00 0.02 0.01 71 1005.7
20210802165002 62 213 7.0 15.0 0.00 0.02 0.01 71 1005.6
20210802164502 62 194 9.0 17.0 0.00 0.02 0.01 71 1005.7
20210802164001 62 194 7.0 17.0 0.00 0.02 0.01 72 1005.7
20210802163502 62 167 9.0 13.0 0.00 0.02 0.01 71 1005.7
20210802163001 61 182 8.0 13.0 0.00 0.02 0.01 71 1005.7
20210802162602 61 173 8.0 19.0 0.00 0.02 0.01 71 1005.7
20210802161723 62 182 7.0 14.0 0.00 0.02 0.01 69 1005.8
20210802161105 62 142 6.0 18.0 0.00 0.02 0.01 69 1005.8
20210802160606 62 184 10.0 18.0 0.00 0.02 0.01 69 1005.8
20210802160132 62 189 9.0 16.0 0.00 0.02 0.01 68 1005.8
20210802155600 62 181 8.0 19.0 0.00 0.07 0.01 69 1005.9
20210802155059 62 194 9.0 19.0 0.00 0.07 0.01 69 1006.0
20210802154713 62 180 9.0 15.0 0.00 0.07 0.01 68 1005.9
20210802154059 62 195 10.0 17.0 0.00 0.07 0.01 68 1006.0
20210802153558 62 182 8.0 19.0 0.00 0.07 0.01 68 1006.0
20210802153151 62 190 11.0 19.0 0.00 0.07 0.01 68 1006.0
20210802152558 62 180 10.0 14.0 0.00 0.07 0.01 67 1006.0
20210802152121 62 184 9.0 16.0 0.00 0.07 0.01 67 1006.0
20210802151628 62 171 10.0 16.0 0.00 0.07 0.01 66 1006.0
20210802151058 62 159 10.0 17.0 0.00 0.07 0.01 65 1006.0
20210802150557 62 202 12.0 17.0 0.00 0.07 0.01 64 1006.1
20210802150136 62 184 10.0 17.0 0.00 0.07 0.01 64 1006.0
20210802145558 62 178 10.0 16.0 0.00 0.07 0.01 64 1006.1
20210802145056 62 169 9.0 14.0 0.00 0.07 0.01 65 1006.1
20210802144650 61 185 6.0 13.0 0.00 0.07 0.01 66 1006.2
20210802144057 61 165 7.0 14.0 0.00 0.07 0.01 66 1006.2
20210802143556 61 190 8.0 14.0 0.00 0.07 0.01 66 1006.2
20210802143201 61 166 9.0 14.0 0.00 0.07 0.01 67 1006.3
20210802142612 61 180 8.0 14.0 0.00 0.07 0.01 66 1006.2
20210802142055 61 173 9.0 13.0 0.00 0.07 0.01 67 1006.2
20210802141817 61 160 9.0 14.0 0.00 0.07 0.01 65 1006.2
20210802141105 61 202 8.0 14.0 0.00 0.07 0.01 66 1006.3
20210802140554 61 150 3.0 11.0 0.00 0.07 0.01 66 1006.2
20210802140117 61 186 7.0 14.0 0.00 0.07 0.01 66 1006.2
20210802135558 61 175 7.0 13.0 0.00 0.08 0.01 65 1006.3
20210802135056 62 192 8.0 13.0 0.00 0.08 0.01 64 1006.2
20210802134737 62 169 9.0 13.0 0.00 0.08 0.01 63 1006.1
20210802134053 62 213 6.0 14.0 0.00 0.08 0.01 63 1006.3
20210802133605 62 146 8.0 11.0 0.00 0.08 0.01 64 1006.1
20210802133134 62 172 5.0 13.0 0.00 0.08 0.01 63 1006.2
20210802132553 62 182 6.0 14.0 0.00 0.08 0.01 64 1006.2
20210802132053 62 197 7.0 10.0 0.00 0.08 0.01 65 1006.2
20210802131628 62 189 7.0 11.0 0.00 0.08 0.01 64 1006.3
20210802131052 62 202 7.0 11.0 0.00 0.08 0.01 65 1006.3
20210802130552 62 155 6.0 13.0 0.00 0.08 0.01 64 1006.3
20210802130150 62 196 7.0 12.0 0.00 0.08 0.01 65 1006.3
20210802125603 62 188 8.0 12.0 0.00 0.10 0.01 63 1006.3
20210802125053 62 179 6.0 14.0 0.00 0.10 0.01 64 1006.3
20210802124604 62 181 10.0 15.0 0.00 0.10 0.01 63 1006.3
20210802124051 62 203 10.0 15.0 0.00 0.10 0.01 64 1006.2
20210802123551 62 196 7.0 12.0 0.00 0.10 0.01 62 1006.3
20210802123108 62 165 6.0 11.0 0.00 0.10 0.01 61 1006.3
20210802122550 62 197 7.0 12.0 0.00 0.10 0.01 60 1006.3
20210802122101 62 200 6.0 12.0 0.00 0.10 0.01 59 1006.2
20210802121726 62 192 6.0 13.0 0.00 0.10 0.01 59 1006.2
20210802121049 62 192 8.0 14.0 0.00 0.10 0.01 59 1006.2
20210802120549 62 185 10.0 13.0 0.00 0.10 0.01 57 1006.1
20210802120147 62 196 7.0 12.0 0.00 0.10 0.01 59 1006.1
20210802115549 62 188 8.0 12.0 0.00 0.17 0.01 60 1006.1
20210802115048 62 185 8.0 12.0 0.00 0.17 0.01 60 1006.2
20210802114621 62 206 8.0 11.0 0.00 0.17 0.01 60 1006.2
20210802114048 62 197 5.0 11.0 0.00 0.17 0.01 63 1006.2
20210802113548 62 200 5.0 9.0 0.00 0.17 0.01 60 1006.2
20210802113203 63 202 5.0 9.0 0.00 0.17 0.01 60 1006.2
20210802112546 63 107 0.0 8.0 0.00 0.17 0.01 59 1006.1
20210802112044 62 136 4.0 8.0 0.00 0.17 0.01 61 1006.1
20210802111646 62 187 4.0 9.0 0.00 0.17 0.01 60 1006.0
20210802111043 62 179 3.0 12.0 0.00 0.17 0.01 59 1006.0
20210802110543 62 158 4.0 12.0 0.00 0.17 0.01 59 1006.0
20210802110130 61 156 4.0 8.0 0.00 0.17 0.01 60 1006.0
20210802105542 61 169 1.0 8.0 0.00 0.17 0.01 58 1006.0
20210802105041 61 202 3.0 8.0 0.00 0.17 0.01 57 1006.0
20210802104610 61 157 5.0 8.0 0.00 0.17 0.01 58 1006.0
20210802104041 61 154 5.0 10.0 0.00 0.17 0.01 59 1006.1
20210802103547 61 197 7.0 10.0 0.00 0.17 0.01 58 1005.9
20210802103116 61 143 3.0 8.0 0.00 0.17 0.01 59 1006.0
20210802102540 61 125 4.0 8.0 0.00 0.17 0.01 59 1006.0
20210802102039 60 190 3.0 8.0 0.00 0.17 0.01 59 1006.0
20210802101659 60 182 5.0 8.0 0.00 0.17 0.01 59 1006.0
20210802101037 60 173 6.0 10.0 0.00 0.17 0.01 59 1006.0
20210802100542 60 174 5.0 9.0 0.00 0.17 0.01 60 1005.9
20210802100118 60 173 6.0 10.0 0.00 0.17 0.01 59 1006.0
20210802095542 61 166 4.0 7.0 0.00 0.17 0.01 59 1005.9
20210802095040 61 97 2.0 7.0 0.00 0.17 0.01 60 1005.9
20210802094552 61 103 5.0 7.0 0.00 0.17 0.01 57 1005.9
20210802094034 61 88 2.0 7.0 0.00 0.17 0.01 60 1005.8
20210802093554 60 113 1.0 6.0 0.00 0.17 0.01 59 1005.8
20210802093102 60 131 1.0 5.0 0.00 0.17 0.01 62 1005.8
20210802092538 60 131 2.0 6.0 0.00 0.17 0.01 61 1005.7
20210802092038 60 118 2.0 6.0 0.00 0.17 0.01 62 1005.6
20210802091550 60 117 1.0 6.0 0.00 0.17 0.01 62 1005.6
20210802091031 60 109 0.0 6.0 0.00 0.17 0.01 63 1005.6
20210802090534 60 109 3.0 8.0 0.00 0.17 0.01 62 1005.7
20210802090130 60 109 2.0 8.0 0.00 0.17 0.01 61 1005.6
20210802085530 60 128 2.0 7.0 0.00 0.17 0.01 62 1005.7
20210802085032 60 133 1.0 7.0 0.00 0.17 0.01 61 1005.6
20210802084648 60 101 2.0 4.0 0.00 0.17 0.01 62 1005.6
20210802084038 60 99 0.0 2.0 0.00 0.17 0.01 61 1005.6
20210802083528 60 99 1.0 3.0 0.00 0.17 0.01 61 1005.6
20210802083050 60 100 1.0 4.0 0.00 0.17 0.01 63 1005.6
20210802082534 60 99 1.0 6.0 0.00 0.17 0.01 62 1005.5
20210802082040 60 105 1.0 6.0 0.00 0.17 0.01 62 1005.6
20210802081531 60 105 2.0 7.0 0.00 0.17 0.01 61 1005.6
20210802081027 59 105 2.0 7.0 0.00 0.17 0.01 60 1005.6
20210802080525 59 96 2.0 7.0 0.00 0.17 0.01 62 1005.7
20210802080052 59 101 3.0 7.0 0.00 0.17 0.01 62 1005.6
20210802075534 60 84 2.0 4.0 0.00 0.17 0.01 64 1005.6
20210802075024 60 84 0.0 4.0 0.00 0.17 0.01 65 1005.5
20210802074600 60 84 0.0 4.0 0.00 0.17 0.01 64 1005.6
20210802074032 61 84 0.0 6.0 0.00 0.17 0.01 66 1005.5
20210802073532 61 84 0.0 6.0 0.00 0.17 0.01 64 1005.5
20210802073035 61 300 0.0 5.0 0.00 0.17 0.01 68 1005.3
20210802072521 61 298 0.0 3.0 0.00 0.17 0.01 66 1005.3
20210802072026 61 298 1.0 3.0 0.00 0.17 0.01 70 1005.2
20210802071537 60 298 0.0 4.0 0.00 0.17 0.01 68 1005.1
20210802071024 60 298 2.0 4.0 0.00 0.17 0.01 69 1005.1
20210802070517 60 298 1.0 4.0 0.00 0.17 0.01 68 1005.1
20210802070022 60 298 2.0 4.0 0.00 0.17 0.01 70 1005.0
20210802065535 59 298 0.0 3.0 0.00 0.17 0.01 69 1004.9
20210802065025 59 297 0.0 2.0 0.00 0.17 0.01 75 1004.9
20210802064538 59 297 0.0 2.0 0.00 0.17 0.01 77 1004.9
20210802064014 58 298 0.0 2.0 0.00 0.17 0.01 78 1004.9
20210802063509 57 297 0.0 1.0 0.00 0.17 0.01 84 1004.8
20210802063120 57 297 0.0 1.0 0.00 0.17 0.01 89 1004.9
20210802062518 57 298 0.0 0.0 0.00 0.17 0.01 92 1004.8
20210802062013 57 297 0.0 0.0 0.00 0.17 0.01 93 1004.7
20210802061509 57 297 0.0 0.0 0.00 0.17 0.01 94 1004.7
20210802061007 57 297 0.0 0.0 0.00 0.17 0.01 94 1004.7
20210802060515 57 297 0.0 0.0 0.00 0.17 0.01 94 1004.6
20210802060014 56 297 0.0 0.0 0.00 0.17 0.01 95 1004.6
20210802055503 56 297 0.0 4.0 0.00 0.17 0.01 95 1004.5
20210802055014 56 297 1.0 4.0 0.00 0.17 0.01 95 1004.6
20210802054503 56 296 0.0 3.0 0.00 0.17 0.01 96 1004.5
20210802054005 56 296 1.0 3.0 0.00 0.17 0.01 96 1004.5
20210802053510 56 296 0.0 4.0 0.00 0.17 0.01 96 1004.5
20210802053002 56 296 0.0 4.0 0.00 0.17 0.01 96 1004.4
20210802052604 56 296 2.0 4.0 0.00 0.17 0.01 96 1004.3
20210802051625 56 296 1.0 4.0 0.00 0.17 0.01 96 1004.3
20210802051107 56 296 1.0 2.0 0.00 0.17 0.01 100 1004.3
20210802050604 56 296 0.0 0.0 0.00 0.17 0.01 100 1004.2
20210802050227 56 296 0.0 0.0 0.00 0.17 0.01 100 1004.2
20210802045602 56 296 0.0 3.0 0.00 0.17 0.01 100 1004.1
20210802045055 55 296 0.0 3.0 0.00 0.17 0.01 100 1004.1
20210802044624 55 294 2.0 4.0 0.00 0.17 0.01 100 1004.0
20210802044105 55 296 2.0 4.0 0.00 0.17 0.01 100 1004.1
20210802043554 55 296 2.0 4.0 0.00 0.17 0.01 100 1004.0
20210802043216 55 296 2.0 4.0 0.00 0.17 0.01 100 1003.9
20210802042606 55 296 1.0 3.0 0.00 0.17 0.01 100 1003.9
20210802042051 55 296 0.0 2.0 0.00 0.17 0.01 100 1003.9
20210802041752 55 296 0.0 2.0 0.00 0.17 0.01 100 1003.8
20210802041052 55 296 0.0 0.0 0.00 0.17 0.01 100 1003.8
20210802040549 55 296 0.0 3.0 0.00 0.17 0.01 100 1003.8
20210802040227 55 296 0.0 3.0 0.00 0.17 0.01 100 1003.8
20210802035546 55 296 1.0 3.0 0.00 0.17 0.01 100 1003.8
20210802035046 55 296 0.0 2.0 0.00 0.17 0.01 100 1003.7
20210802034638 54 296 0.0 0.0 0.00 0.17 0.01 100 1003.7
20210802034045 54 296 0.0 1.0 0.00 0.17 0.01 100 1003.7
20210802033544 54 296 0.0 2.0 0.00 0.17 0.01 100 1003.7
20210802033146 54 296 1.0 3.0 0.00 0.17 0.01 100 1003.6
20210802032544 54 296 1.0 4.0 0.00 0.17 0.01 100 1003.6
20210802032041 54 296 1.0 4.0 0.00 0.17 0.01 100 1003.5
20210802031620 54 296 2.0 4.0 0.00 0.17 0.01 100 1003.5
20210802031041 54 355 2.0 8.0 0.00 0.17 0.01 100 1003.4
20210802030551 54 355 3.0 8.0 0.00 0.17 0.01 100 1003.4
20210802030131 54 355 4.0 5.0 0.00 0.17 0.01 100 1003.4
20210802025538 54 355 3.0 5.0 0.00 0.17 0.01 100 1003.4
20210802025046 54 350 3.0 5.0 0.00 0.17 0.01 100 1003.4
20210802024609 54 350 0.0 2.0 0.00 0.17 0.01 100 1003.4
20210802024041 55 350 0.0 0.0 0.00 0.17 0.01 100 1003.3
20210802023559 55 350 0.0 0.0 0.00 0.17 0.01 100 1003.3
20210802023102 55 350 0.0 0.0 0.00 0.17 0.01 100 1003.2
20210802022540 55 350 0.0 0.0 0.00 0.17 0.01 100 1003.2
20210802022035 55 350 0.0 0.0 0.00 0.17 0.01 100 1003.1
20210802021632 55 350 0.0 0.0 0.00 0.17 0.01 100 1003.0
20210802021038 55 350 0.0 0.0 0.00 0.17 0.01 100 1003.0
20210802020552 55 350 0.0 0.0 0.00 0.17 0.01 100 1003.0
20210802020135 55 350 0.0 1.0 0.00 0.17 0.01 100 1003.0
20210802015533 55 350 0.0 2.0 0.00 0.17 0.01 100 1003.0
20210802015035 55 350 0.0 5.0 0.00 0.17 0.01 100 1003.0
20210802014613 55 350 1.0 5.0 0.00 0.17 0.01 100 1002.9
20210802014036 55 350 2.0 3.0 0.00 0.17 0.01 100 1002.9
20210802013532 55 350 0.0 0.0 0.00 0.17 0.01 100 1002.8
20210802013126 55 350 0.0 0.0 0.00 0.17 0.01 100 1002.7
20210802012533 55 350 0.0 0.0 0.00 0.17 0.01 100 1002.7
20210802012033 55 350 0.0 0.0 0.00 0.17 0.01 100 1002.7
20210802011617 55 350 0.0 0.0 0.00 0.17 0.01 100 1002.7
20210802011031 55 350 0.0 0.0 0.00 0.17 0.01 100 1002.7
20210802010530 55 350 0.0 1.0 0.00 0.17 0.01 100 1002.7
20210802010056 55 350 0.0 1.0 0.00 0.17 0.01 100 1002.7
20210802005530 55 350 0.0 3.0 0.00 0.17 0.01 100 1002.7
20210802005040 55 350 0.0 3.0 0.00 0.17 0.01 100 1002.7
20210802004640 55 350 1.0 3.0 0.00 0.17 0.01 100 1002.7
20210802004030 55 350 1.0 3.0 0.00 0.17 0.01 100 1002.7
20210802003536 55 350 1.0 3.0 0.01 0.17 0.01 100 1002.6
20210802003059 55 350 0.0 2.0 0.01 0.17 0.01 100 1002.6
20210802002528 55 350 0.0 2.0 0.01 0.17 0.01 100 1002.5
20210802002027 55 350 0.0 1.0 0.01 0.17 0.01 100 1002.5
20210802001710 55 350 0.0 2.0 0.01 0.17 0.01 100 1002.6
20210802001027 55 350 1.0 2.0 0.01 0.17 0.01 100 1002.5
20210802000528 55 350 0.0 2.0 0.01 0.17 0.01 100 1002.5
20210802000039 55 350 0.0 3.0 0.01 0.17 0.01 100 1002.5
20210801235538 55 350 1.0 4.0 0.01 0.17 0.01 100 1002.5
20210801235039 55 350 2.0 4.0 0.01 0.17 0.01 100 1002.5
20210801234646 55 350 2.0 4.0 0.01 0.17 0.01 100 1002.5
20210801234047 55 350 2.0 4.0 0.01 0.17 0.01 100 1002.5
20210801233526 55 350 1.0 3.0 0.00 0.16 0.00 100 1002.5
20210801233100 55 350 2.0 3.0 0.00 0.16 0.00 100 1002.4
20210801232543 55 350 1.0 3.0 0.00 0.16 0.00 100 1002.4
20210801232024 55 350 0.0 2.0 0.00 0.16 0.00 97 1002.4
20210801231538 55 350 0.0 2.0 0.00 0.16 0.00 97 1002.4
20210801231024 55 350 0.0 3.0 0.00 0.16 0.00 97 1002.4
20210801230523 55 350 1.0 3.0 0.00 0.16 0.00 97 1002.4
20210801230059 55 350 0.0 3.0 0.00 0.16 0.00 96 1002.4
20210801225525 55 350 2.0 4.0 0.00 0.16 0.00 96 1002.4
20210801225050 55 350 2.0 4.0 0.00 0.16 0.00 96 1002.4
20210801224533 55 350 2.0 3.0 0.00 0.16 0.00 96 1002.4
20210801224022 55 350 1.0 3.0 0.00 0.16 0.00 96 1002.3
20210801223536 55 350 1.0 4.0 0.00 0.16 0.00 96 1002.3
20210801223036 55 350 0.0 3.0 0.00 0.16 0.00 96 1002.3
20210801222524 55 349 0.0 3.0 0.00 0.16 0.00 95 1002.3
20210801222021 55 350 0.0 3.0 0.00 0.16 0.00 95 1002.3
20210801221558 55 350 2.0 3.0 0.00 0.16 0.00 95 1002.2
20210801221020 55 350 1.0 3.0 0.00 0.16 0.00 95 1002.2
20210801220519 55 349 2.0 3.0 0.00 0.16 0.00 94 1002.2
20210801220040 55 350 0.0 2.0 0.00 0.16 0.00 94 1002.1
20210801215518 55 350 0.0 2.0 0.00 0.16 0.16 94 1002.0
20210801215018 55 350 0.0 2.0 0.00 0.16 0.16 93 1002.0
20210801214537 55 350 0.0 2.0 0.00 0.16 0.16 93 1002.1
20210801214017 55 350 0.0 2.0 0.00 0.16 0.16 93 1002.1
20210801213516 55 350 1.0 2.0 0.00 0.16 0.16 93 1002.1
20210801213023 55 350 0.0 0.0 0.00 0.16 0.16 92 1002.1
20210801212515 55 350 0.0 1.0 0.00 0.16 0.16 92 1002.0
20210801212014 55 350 0.0 3.0 0.00 0.16 0.16 92 1002.0
20210801211549 55 350 0.0 3.0 0.00 0.16 0.16 92 1001.9
20210801211020 55 350 0.0 3.0 0.00 0.16 0.16 92 1001.9
20210801210515 55 350 0.0 4.0 0.00 0.16 0.16 92 1001.9
20210801210020 55 350 1.0 4.0 0.00 0.16 0.16 91 1001.9
20210801205516 56 350 2.0 4.0 0.00 0.16 0.16 91 1001.8
20210801205034 56 350 1.0 4.0 0.00 0.16 0.16 91 1001.8
20210801204521 56 350 0.0 4.0 0.00 0.16 0.16 90 1001.7
20210801204013 56 350 2.0 4.0 0.00 0.16 0.16 89 1001.6
20210801203516 56 350 1.0 4.0 0.00 0.16 0.16 88 1001.6
20210801203010 56 350 1.0 3.0 0.00 0.16 0.16 88 1001.5
20210801202509 56 350 0.0 2.0 0.00 0.16 0.16 88 1001.5
20210801202008 56 350 0.0 2.0 0.00 0.16 0.16 88 1001.5
20210801201513 56 350 0.0 1.0 0.00 0.16 0.16 88 1001.3
20210801201007 56 350 0.0 2.0 0.00 0.16 0.16 89 1001.2
20210801200512 57 350 0.0 2.0 0.00 0.16 0.16 89 1001.2
20210801200010 57 350 0.0 4.0 0.00 0.16 0.16 89 1001.2
20210801195505 57 350 0.0 4.0 0.00 0.16 0.16 89 1001.3
20210801195006 57 350 2.0 3.0 0.00 0.16 0.16 89 1001.2
20210801194509 57 350 1.0 3.0 0.00 0.16 0.16 90 1001.1
20210801194008 57 350 2.0 4.0 0.00 0.16 0.16 90 1001.1
20210801193509 57 350 3.0 4.0 0.00 0.16 0.16 90 1001.1
20210801193017 57 350 1.0 3.0 0.00 0.16 0.16 90 1001.1
20210801192506 57 350 2.0 4.0 0.00 0.16 0.16 90 1001.2
20210801192002 58 350 2.0 4.0 0.00 0.16 0.16 90 1001.1
20210801191002 58 350 2.0 4.0 0.00 0.16 0.16 90 1001.0
20210801190612 58 350 2.0 3.0 0.00 0.16 0.16 90 1000.9
20210801190201 58 350 0.0 4.0 0.00 0.16 0.16 89 1000.9
20210801185559 58 350 1.0 4.0 0.00 0.16 0.16 88 1000.8
20210801185120 58 350 2.0 4.0 0.00 0.16 0.16 88 1000.7
20210801184655 58 350 2.0 5.0 0.00 0.16 0.16 87 1000.6
20210801184057 58 350 3.0 5.0 0.00 0.16 0.16 87 1000.6
20210801183559 58 350 2.0 4.0 0.01 0.16 0.16 87 1000.6
20210801183127 59 350 2.0 4.0 0.01 0.16 0.16 85 1000.5